{"data":{"norad_id":60549,"epoch":"2026-05-25T02:56:12.139872Z","epoch_age_seconds":60323,"freshness":"FRESH","line1":"1 60549U 24149CK  26145.12236273  .00001064  00000+0  95385-4 0  9992","line2":"2 60549  97.6815 221.9907 0005286 140.8448 219.3157 14.97860948 96629","mean_motion":14.97860948,"eccentricity":0.0005286,"inclination_deg":97.6815,"raan_deg":221.9907,"arg_perigee_deg":140.8448,"mean_anomaly_deg":219.3157,"bstar":9.5385e-5,"rev_number":9662,"period_min":96.13709482998,"perigee_km":569.83213516875,"apogee_km":577.1814129667,"semimajor_km":6951.6437740677,"source":"CELESTRAK","updated_at":"2026-05-25T13:38:02.151665Z"}}